Weather History for KSLB - November, 2013

Change the Weather History Date:

Monday, November 4, 2013

  Actual Average Record
Temperature  
Mean Temperature 45 °F -  
Max Temperature 51 °F 49 °F 75 °F (2008)
Min Temperature 37 °F 32 °F 24 °F (1997)
Degree Days  
Heating Degree Days 20    
Moisture  
Dew Point 37 °F    
Average Humidity 71    
Maximum Humidity 93    
Minimum Humidity 50    
Precipitation  
Precipitation 0.00 in - - ()
Sea Level Pressure  
Sea Level Pressure 29.93 in    
Wind  
Wind Speed 12 mph (WSW)    
Max Wind Speed 20 mph    
Max Gust Speed 28 mph    
Visibility 10 miles    
Events Rain    
Averages and records for this station are not official NWS values.
T = Trace of Precipitation, MM = Missing Value Source: NWS Daily Summary

Daily Weather History Graph

Daily Weather History Graph

Search for Another Location

Airport or City:

Trip Planner

Search our weather history database for the weather conditions in past years. The results will help you decide how hot, cold, wet, or windy it might be!

Date:

Astronomy

Nov. 04, 2013 Rise Set
Actual Time 6:58 AM CST 5:09 PM CST
Civil Twilight 6:29 AM CST 5:39 PM CST
Nautical Twilight 5:55 AM CST 6:12 PM CST
Astronomical Twilight 5:22 AM CST 6:45 PM CST
Moon 8:11 AM CST 6:13 PM CST
Length of Visible Light 11h 09m
Length of Day
10h 10m
New Moon, 2% of the Moon is Illuminated
Nov 4
New Moon
Nov 9
First Quarter
Nov 17
Full
Nov 25
Last Quarter
Dec 2
New

Hourly Weather History & Observations

Time (CST) Temp. Windchill Dew Point Humidity Pressure Visibility Wind Dir Wind Speed Gust Speed Precip Events Conditions
12:15 AM 48.2 °F - 37.4 °F 66% 29.79 in 10.0 mi SSE 16.1 mph 21.9 mph N/A   Partly Cloudy
12:55 AM 48.2 °F - 37.4 °F 66% 29.79 in 10.0 mi SSE 16.1 mph 24.2 mph N/A   Clear
1:15 AM 46.4 °F 40.1 °F 37.4 °F 71% 29.79 in 10.0 mi SSE 15.0 mph 23.0 mph N/A   Clear
1:35 AM 46.4 °F 40.4 °F 37.4 °F 71% 29.79 in 10.0 mi SSE 13.8 mph 20.7 mph N/A   Clear
1:55 AM 46.4 °F 40.7 °F 37.4 °F 71% 29.79 in 10.0 mi SSE 12.7 mph - N/A   Clear
2:15 AM 46.4 °F 40.1 °F 37.4 °F 71% 29.79 in 10.0 mi SSE 15.0 mph - N/A   Clear
2:35 AM 46.4 °F 40.1 °F 37.4 °F 71% 29.79 in 10.0 mi South 15.0 mph 20.7 mph N/A   Clear
2:55 AM 46.4 °F 40.4 °F 37.4 °F 71% 29.78 in 10.0 mi South 13.8 mph 19.6 mph N/A   Clear
3:15 AM 44.6 °F 38.8 °F 37.4 °F 76% 29.78 in 10.0 mi SSE 11.5 mph 19.6 mph N/A   Clear
3:35 AM 44.6 °F 38.8 °F 37.4 °F 76% 29.78 in 10.0 mi SSE 11.5 mph - N/A   Clear
3:55 AM 44.6 °F 38.4 °F 39.2 °F 81% 29.78 in 10.0 mi SSE 12.7 mph 19.6 mph N/A   Clear
4:15 AM 44.6 °F 38.1 °F 39.2 °F 81% 29.78 in 10.0 mi SSE 13.8 mph - N/A   Clear
4:35 AM 44.6 °F 38.4 °F 39.2 °F 81% 29.78 in 10.0 mi South 12.7 mph - N/A   Scattered Clouds
4:55 AM 44.6 °F 38.8 °F 39.2 °F 81% 29.78 in 10.0 mi SSE 11.5 mph - N/A   Partly Cloudy
5:15 AM 44.6 °F 38.4 °F 39.2 °F 81% 29.78 in 10.0 mi SSE 12.7 mph - N/A   Clear
5:35 AM 44.6 °F 39.2 °F 39.2 °F 81% 29.78 in 10.0 mi SSE 10.4 mph - N/A   Partly Cloudy
5:55 AM 44.6 °F 38.8 °F 39.2 °F 81% 29.78 in 10.0 mi SSE 11.5 mph - N/A   Scattered Clouds
6:15 AM 46.4 °F 40.7 °F 41.0 °F 81% 29.78 in 10.0 mi SSE 12.7 mph - N/A   Scattered Clouds
6:35 AM 46.4 °F 40.7 °F 41.0 °F 81% 29.79 in 10.0 mi South 12.7 mph - N/A   Partly Cloudy
6:55 AM 44.6 °F 38.4 °F 41.0 °F 87% 29.79 in 10.0 mi South 12.7 mph - N/A   Scattered Clouds
7:15 AM 44.6 °F 38.8 °F 41.0 °F 87% 29.80 in 10.0 mi SSE 11.5 mph - N/A   Overcast
7:35 AM 44.6 °F 38.8 °F 41.0 °F 87% 29.80 in 10.0 mi South 11.5 mph - N/A   Overcast
7:55 AM 44.6 °F 38.8 °F 41.0 °F 87% 29.81 in 9.0 mi South 11.5 mph - N/A Rain Light Rain
8:15 AM 46.4 °F 41.5 °F 42.8 °F 87% 29.81 in 10.0 mi South 10.4 mph - N/A   Overcast
8:35 AM 46.4 °F 40.1 °F 42.8 °F 87% 29.82 in 10.0 mi South 15.0 mph - N/A   Overcast
8:55 AM 46.4 °F 40.4 °F 44.6 °F 93% 29.83 in 10.0 mi South 13.8 mph - N/A   Overcast
9:15 AM 48.2 °F - 44.6 °F 87% 29.85 in 10.0 mi SSW 15.0 mph - N/A   Overcast
9:35 AM 48.2 °F - 44.6 °F 87% 29.86 in 10.0 mi SW 12.7 mph - N/A   Overcast
9:55 AM 48.2 °F - 42.8 °F 82% 29.86 in 10.0 mi SW 15.0 mph - N/A   Overcast
10:15 AM 48.2 °F - 42.8 °F 82% 29.88 in 10.0 mi WSW 11.5 mph 19.6 mph N/A   Overcast
10:35 AM 48.2 °F - 42.8 °F 82% 29.89 in 10.0 mi West 13.8 mph - N/A   Overcast
10:55 AM 46.4 °F 39.2 °F 39.2 °F 76% 29.90 in 10.0 mi WNW 18.4 mph 24.2 mph N/A   Overcast
11:15 AM 46.4 °F 39.0 °F 39.2 °F 76% 29.90 in 10.0 mi NNW 19.6 mph - N/A   Overcast
11:35 AM 46.4 °F 39.5 °F 39.2 °F 76% 29.91 in 10.0 mi NW 17.3 mph - N/A   Overcast
11:55 AM 48.2 °F - 37.4 °F 66% 29.91 in 10.0 mi NNW 19.6 mph 27.6 mph N/A   Overcast
12:15 PM 46.4 °F 39.0 °F 37.4 °F 71% 29.93 in 10.0 mi NNW 19.6 mph 25.3 mph N/A   Mostly Cloudy
12:35 PM 48.2 °F - 37.4 °F 66% 29.93 in 10.0 mi NNW 19.6 mph - N/A   Partly Cloudy
12:55 PM 48.2 °F - 37.4 °F 66% 29.94 in 10.0 mi NW 17.3 mph 25.3 mph N/A   Scattered Clouds
1:15 PM 51.8 °F - 37.4 °F 58% 29.94 in 10.0 mi NNW 17.3 mph 23.0 mph N/A   Mostly Cloudy
1:35 PM 50.0 °F - 37.4 °F 62% 29.94 in 10.0 mi NNW 16.1 mph 21.9 mph N/A   Overcast
1:55 PM 51.8 °F - 37.4 °F 58% 29.94 in 10.0 mi NW 16.1 mph - N/A   Scattered Clouds
2:15 PM 51.8 °F - 33.8 °F 50% 29.96 in 10.0 mi NW 13.8 mph 20.7 mph N/A   Mostly Cloudy
2:35 PM 50.0 °F - 35.6 °F 58% 29.97 in 10.0 mi NW 15.0 mph - N/A   Overcast
2:55 PM 50.0 °F - 35.6 °F 58% 29.97 in 10.0 mi NW 11.5 mph 17.3 mph N/A   Mostly Cloudy
3:15 PM 50.0 °F - 35.6 °F 58% 29.98 in 10.0 mi NW 11.5 mph - N/A   Mostly Cloudy
3:35 PM 51.8 °F - 33.8 °F 50% 29.99 in 10.0 mi WNW 10.4 mph 18.4 mph N/A   Scattered Clouds
3:55 PM 51.8 °F - 33.8 °F 50% 29.99 in 10.0 mi WNW 9.2 mph - N/A   Clear
4:15 PM 50.0 °F - 33.8 °F 54% 29.99 in 10.0 mi WNW 5.8 mph - N/A   Clear
4:35 PM 50.0 °F - 33.8 °F 54% 29.99 in 10.0 mi NW 5.8 mph - N/A   Clear
4:55 PM 48.2 °F - 33.8 °F 58% 30.00 in 10.0 mi WNW 5.8 mph - N/A   Clear
5:15 PM 44.6 °F 39.7 °F 32.0 °F 61% 30.01 in 10.0 mi WNW 9.2 mph - N/A   Clear
5:35 PM 44.6 °F 40.2 °F 32.0 °F 61% 30.01 in 10.0 mi WNW 8.1 mph - N/A   Clear
5:55 PM 44.6 °F 41.4 °F 32.0 °F 61% 30.02 in 10.0 mi WNW 5.8 mph - N/A   Clear
6:15 PM 44.6 °F 42.2 °F 32.0 °F 61% 30.04 in 9.0 mi WNW 4.6 mph - N/A   Clear
6:35 PM 44.6 °F 42.2 °F 32.0 °F 61% 30.05 in 10.0 mi West 4.6 mph - N/A   Clear
6:55 PM 44.6 °F - 32.0 °F 61% 30.06 in 10.0 mi Calm Calm - N/A   Clear
7:15 PM 44.6 °F 43.1 °F 32.0 °F 61% 30.08 in 10.0 mi WNW 3.5 mph - N/A   Clear
7:35 PM 44.6 °F - 32.0 °F 61% 30.08 in 10.0 mi Calm Calm - N/A   Clear
7:55 PM 42.8 °F - 32.0 °F 66% 30.09 in 10.0 mi Calm Calm - N/A   Clear
8:15 PM 42.8 °F 41.1 °F 32.0 °F 66% 30.10 in 10.0 mi West 3.5 mph - N/A   Clear
8:35 PM 41.0 °F - 30.2 °F 65% 30.10 in 10.0 mi Calm Calm - N/A   Clear
8:55 PM 41.0 °F 38.0 °F 32.0 °F 70% 30.11 in 10.0 mi West 4.6 mph - N/A   Clear
9:15 PM 42.8 °F 38.6 °F 32.0 °F 66% 30.12 in 10.0 mi WNW 6.9 mph - N/A   Clear
9:35 PM 41.0 °F 38.0 °F 32.0 °F 70% 30.12 in 10.0 mi WNW 4.6 mph - N/A   Clear
9:55 PM 42.8 °F 39.3 °F 32.0 °F 66% 30.13 in 10.0 mi NW 5.8 mph - N/A   Clear
10:15 PM 41.0 °F 36.4 °F 32.0 °F 70% 30.13 in 10.0 mi NNW 6.9 mph - N/A   Clear
10:35 PM 41.0 °F 36.4 °F 32.0 °F 70% 30.13 in 10.0 mi NNW 6.9 mph - N/A   Clear
10:55 PM 39.2 °F 35.0 °F 30.2 °F 70% 30.13 in 10.0 mi North 5.8 mph - N/A   Clear
11:15 PM 41.0 °F 37.1 °F 30.2 °F 65% 30.13 in 10.0 mi NNW 5.8 mph - N/A   Clear
11:35 PM 39.2 °F 34.2 °F 30.2 °F 70% 30.14 in 10.0 mi NNW 6.9 mph - N/A   Clear
11:55 PM 37.4 °F 32.1 °F 30.2 °F 75% 30.14 in 10.0 mi NNW 6.9 mph - N/A   Clear